CFE603 EGLC-LIRQ

Flight info

Callsign CFE603
Flight time 2h 15m
Altitude 23000
Route SOQQA M87 UMTUM L9 KONAN/N0448F390 UL607 REMBA M624 DIK N852 SUTAL DCT GTQ DCT POGOL DCT LASAT DCT DEVDI DCT RIPUS DCT RESIA DCT ADOSA/N0367F190 L612 ALBET M726 LUMAV Q58 BIKTU
Aircraft E190/M-SDE3GILORVW/S

Departure

Time 2026-04-27 16:57
Airport London City Airport (EGLC)

Arrival

Time 2026-04-27 19:12
Airport Florence Airport, Peretola (LIRQ)
Time Latitude Longitude Altitude Speed Heading
2026-04-27 15:54 51.50409 0.05073 24 ft 0 kts 325°
2026-04-27 16:50 51.50409 0.05072 51 ft 0 kts 326°
2026-04-27 16:50 51.50410 0.05073 51 ft 0 kts 335°
2026-04-27 16:51 51.50418 0.05072 24 ft 1 kts 355°
2026-04-27 16:51 51.50427 0.05075 26 ft 1 kts 11°
2026-04-27 16:51 51.50436 0.05078 24 ft 0 kts 10°
2026-04-27 16:52 51.50439 0.05078 24 ft 1 kts
2026-04-27 16:52 51.50441 0.05077 24 ft 0 kts 355°
2026-04-27 16:52 51.50446 0.05072 24 ft 2 kts 333°
2026-04-27 16:52 51.50459 0.05032 24 ft 6 kts 288°
2026-04-27 16:53 51.50463 0.04959 24 ft 7 kts 272°
2026-04-27 16:53 51.50465 0.04875 24 ft 8 kts 272°
2026-04-27 16:53 51.50468 0.04779 24 ft 9 kts 272°
2026-04-27 16:53 51.50471 0.04674 24 ft 10 kts 272°
2026-04-27 16:54 51.50474 0.04562 24 ft 8 kts 274°
2026-04-27 16:54 51.50477 0.04508 26 ft 5 kts 274°
2026-04-27 16:54 51.50492 0.04455 26 ft 5 kts 315°
2026-04-27 16:54 51.50529 0.04442 25 ft 6 kts
2026-04-27 16:55 51.50555 0.04477 24 ft 5 kts 83°
2026-04-27 16:55 51.50554 0.04519 24 ft 0 kts 94°
2026-04-27 16:55 51.50554 0.04530 24 ft 10 kts 94°
2026-04-27 16:55 51.50538 0.05033 24 ft 79 kts 92°
2026-04-27 16:56 51.50500 0.06251 33 ft 136 kts 92°
2026-04-27 16:56 51.50466 0.07856 521 ft 148 kts 90°
2026-04-27 16:56 51.50477 0.09653 415 ft 165 kts 84°
2026-04-27 16:56 51.50818 0.11350 264 ft 151 kts 67°
2026-04-27 16:57 51.51218 0.12833 369 ft 145 kts 68°
2026-04-27 16:57 51.51676 0.14216 638 ft 151 kts 57°
2026-04-27 16:57 51.52373 0.15498 511 ft 158 kts 41°
2026-04-27 16:57 51.53364 0.16658 856 ft 188 kts 32°
2026-04-27 16:58 51.54668 0.17748 1177 ft 238 kts 22°
2026-04-27 16:58 51.56367 0.18798 1271 ft 292 kts 26°
2026-04-27 16:58 51.57902 0.21078 1738 ft 295 kts 56°
2026-04-27 16:58 51.58604 0.23988 2774 ft 270 kts 81°
2026-04-27 16:59 51.58393 0.26826 3062 ft 247 kts 104°
2026-04-27 16:59 51.58121 0.29436 3175 ft 229 kts 92°
2026-04-27 16:59 51.57926 0.32054 3323 ft 252 kts 104°
2026-04-27 16:59 51.57024 0.34612 3937 ft 272 kts 128°
2026-04-27 17:00 51.55277 0.37636 5150 ft 278 kts 132°
2026-04-27 17:00 51.53149 0.41509 6692 ft 279 kts 129°
2026-04-27 17:00 51.51899 0.43914 7431 ft 282 kts 129°
2026-04-27 17:01 51.50630 0.46347 8102 ft 287 kts 129°
2026-04-27 17:01 51.49333 0.48816 8759 ft 293 kts 129°
2026-04-27 17:01 51.48006 0.51340 9406 ft 298 kts 129°
2026-04-27 17:01 51.46659 0.53896 10109 ft 302 kts 129°
2026-04-27 17:02 51.45255 0.56550 10435 ft 320 kts 130°
2026-04-27 17:02 51.43790 0.59285 10840 ft 332 kts 130°
2026-04-27 17:02 51.42277 0.62113 11511 ft 336 kts 130°
2026-04-27 17:02 51.40749 0.64979 12257 ft 340 kts 130°
2026-04-27 17:03 51.39205 0.67869 13004 ft 344 kts 131°
2026-04-27 17:03 51.37633 0.70797 13797 ft 349 kts 131°
2026-04-27 17:03 51.36038 0.73761 14566 ft 353 kts 132°
2026-04-27 17:03 51.34419 0.76749 15318 ft 358 kts 132°
2026-04-27 17:04 51.32772 0.79774 16135 ft 361 kts 133°
2026-04-27 17:04 51.31677 0.81779 16670 ft 363 kts 133°
2026-04-27 17:04 51.30004 0.84833 17377 ft 368 kts 133°
2026-04-27 17:04 51.28300 0.87926 18082 ft 373 kts 133°
2026-04-27 17:05 51.26571 0.91051 18776 ft 378 kts 133°
2026-04-27 17:05 51.24820 0.94205 19423 ft 382 kts 133°
2026-04-27 17:05 51.23047 0.97385 20081 ft 386 kts 133°
2026-04-27 17:05 51.21265 1.00622 20718 ft 390 kts 129°
2026-04-27 17:06 51.19954 1.04423 21273 ft 395 kts 106°
2026-04-27 17:06 51.19336 1.08707 21887 ft 397 kts 99°
2026-04-27 17:06 51.18865 1.13063 22449 ft 401 kts 99°
2026-04-27 17:06 51.18384 1.17463 23019 ft 404 kts 99°
2026-04-27 17:07 51.17881 1.21883 23581 ft 408 kts 99°
2026-04-27 17:07 51.17364 1.26355 24101 ft 411 kts 99°
2026-04-27 17:07 51.16841 1.30851 24611 ft 414 kts 99°
2026-04-27 17:07 51.16327 1.35371 25115 ft 416 kts 97°
2026-04-27 17:08 51.16015 1.40032 25188 ft 431 kts 92°
2026-04-27 17:08 51.15806 1.44800 25311 ft 443 kts 92°
2026-04-27 17:08 51.15585 1.49728 25717 ft 448 kts 93°
2026-04-27 17:08 51.15352 1.54681 26202 ft 449 kts 93°
2026-04-27 17:09 51.15115 1.59648 26666 ft 451 kts 93°
2026-04-27 17:09 51.14871 1.64663 27069 ft 454 kts 93°
2026-04-27 17:09 51.14623 1.69694 27470 ft 457 kts 93°
2026-04-27 17:09 51.14371 1.74752 27842 ft 459 kts 93°
2026-04-27 17:10 51.14115 1.79829 28211 ft 462 kts 93°
2026-04-27 17:10 51.13855 1.84948 28559 ft 465 kts 93°
2026-04-27 17:10 51.13591 1.90091 28939 ft 467 kts 94°
2026-04-27 17:10 51.13323 1.95290 29083 ft 474 kts 95°
2026-04-27 17:11 51.13049 2.00537 29466 ft 475 kts 95°
2026-04-27 17:11 51.12493 2.10995 30436 ft 473 kts 95°
2026-04-27 17:11 51.12212 2.16203 30800 ft 472 kts 95°
2026-04-27 17:12 51.11646 2.26615 31495 ft 472 kts 95°
2026-04-27 17:12 51.11360 2.31813 31826 ft 472 kts 95°
2026-04-27 17:12 51.11075 2.36945 32134 ft 471 kts 95°
2026-04-27 17:13 51.10783 2.42167 32258 ft 476 kts 96°
2026-04-27 17:13 51.10487 2.47415 32494 ft 477 kts 96°
2026-04-27 17:13 51.10188 2.52677 32791 ft 477 kts 96°
2026-04-27 17:13 51.09887 2.57932 33089 ft 476 kts 96°
2026-04-27 17:14 51.09582 2.63188 33392 ft 475 kts 97°
2026-04-27 17:14 51.08987 2.68338 33647 ft 473 kts 106°
2026-04-27 17:14 51.08093 2.73366 33942 ft 472 kts 109°
2026-04-27 17:14 51.07144 2.78354 34223 ft 471 kts 109°
2026-04-27 17:15 51.06211 2.83350 34479 ft 471 kts 109°
2026-04-27 17:15 51.04359 2.93423 34754 ft 476 kts 109°
2026-04-27 17:15 51.03437 2.98470 35014 ft 475 kts 108°
2026-04-27 17:16 51.02516 3.03512 35261 ft 475 kts 108°
2026-04-27 17:16 51.01595 3.08534 35507 ft 474 kts 108°
2026-04-27 17:16 51.00684 3.13491 35749 ft 473 kts 108°
2026-04-27 17:16 50.99760 3.18502 35976 ft 472 kts 108°
2026-04-27 17:17 50.98836 3.23501 36197 ft 472 kts 108°
2026-04-27 17:17 50.97908 3.28507 36407 ft 472 kts 108°
2026-04-27 17:17 50.96979 3.33501 36575 ft 473 kts 108°
2026-04-27 17:18 50.95105 3.43531 36923 ft 474 kts 108°
2026-04-27 17:18 50.94169 3.48525 37147 ft 473 kts 108°
2026-04-27 17:18 50.93231 3.53514 37365 ft 472 kts 108°
2026-04-27 17:18 50.92292 3.58493 37570 ft 471 kts 108°
2026-04-27 17:19 50.91354 3.63457 37773 ft 470 kts 108°
2026-04-27 17:19 50.90409 3.68409 37970 ft 469 kts 108°
2026-04-27 17:19 50.89453 3.73355 38164 ft 469 kts 108°
2026-04-27 17:19 50.88494 3.78293 38340 ft 469 kts 108°
2026-04-27 17:20 50.87536 3.83227 38477 ft 469 kts 108°
2026-04-27 17:20 50.86587 3.88104 38650 ft 469 kts 108°
2026-04-27 17:20 50.85628 3.93029 38817 ft 468 kts 108°
2026-04-27 17:20 50.84672 3.97922 39151 ft 459 kts 108°
2026-04-27 17:21 50.83745 4.02662 39386 ft 446 kts 108°
2026-04-27 17:21 50.82841 4.07268 39162 ft 435 kts 108°
2026-04-27 17:21 50.81962 4.11740 39137 ft 416 kts 108°
2026-04-27 17:21 50.81122 4.16004 39162 ft 397 kts 108°
2026-04-27 17:22 50.80314 4.20098 39146 ft 386 kts 108°
2026-04-27 17:22 50.79508 4.24168 39242 ft 381 kts 108°
2026-04-27 17:22 50.77929 4.32115 39206 ft 381 kts 108°
2026-04-27 17:23 50.76338 4.40085 39189 ft 379 kts 109°
2026-04-27 17:23 50.74753 4.48002 39196 ft 377 kts 109°
2026-04-27 17:24 50.73171 4.55868 39200 ft 373 kts 109°
2026-04-27 17:24 50.71610 4.63655 39207 ft 369 kts 108°
2026-04-27 17:25 50.70122 4.71389 39180 ft 366 kts 108°
2026-04-27 17:25 50.68646 4.79002 39135 ft 360 kts 108°
2026-04-27 17:26 50.67198 4.86420 39086 ft 352 kts 108°
2026-04-27 17:26 50.66386 4.90029 39028 ft 347 kts 119°
2026-04-27 17:26 50.65135 4.93269 38724 ft 347 kts 136°
2026-04-27 17:27 50.63464 4.96038 38336 ft 350 kts 141°
2026-04-27 17:27 50.61711 4.98642 38408 ft 341 kts 142°
2026-04-27 17:27 50.60018 5.01164 38606 ft 330 kts 141°
2026-04-27 17:27 50.58370 5.03658 38445 ft 330 kts 140°
2026-04-27 17:28 50.56712 5.06218 38041 ft 338 kts 140°
2026-04-27 17:28 50.55029 5.08842 37781 ft 341 kts 140°
2026-04-27 17:28 50.51726 5.13967 37846 ft 329 kts 141°
2026-04-27 17:29 50.50095 5.16482 37708 ft 329 kts 141°
2026-04-27 17:29 50.48452 5.19022 37452 ft 333 kts 141°
2026-04-27 17:29 50.46795 5.21585 37300 ft 334 kts 141°
2026-04-27 17:30 50.43512 5.26647 37259 ft 327 kts 142°
2026-04-27 17:30 50.40253 5.31653 36967 ft 330 kts 142°
2026-04-27 17:30 50.38612 5.34175 36863 ft 330 kts 142°
2026-04-27 17:31 50.35361 5.39159 36802 ft 324 kts 142°
2026-04-27 17:31 50.33747 5.41626 36682 ft 325 kts 142°
2026-04-27 17:31 50.32123 5.44104 36541 ft 327 kts 142°
2026-04-27 17:32 50.27280 5.51492 36400 ft 321 kts 142°
2026-04-27 17:33 50.24071 5.56366 36185 ft 323 kts 143°
2026-04-27 17:33 50.20851 5.61246 36094 ft 321 kts 143°
2026-04-27 17:34 50.17689 5.66032 35973 ft 319 kts 143°
2026-04-27 17:34 50.16088 5.68447 35846 ft 321 kts 143°
2026-04-27 17:34 50.14480 5.70874 35785 ft 321 kts 143°
2026-04-27 17:35 50.11298 5.75674 35757 ft 316 kts 143°
2026-04-27 17:35 50.08118 5.80452 35546 ft 319 kts 143°
2026-04-27 17:36 50.04919 5.85204 35525 ft 315 kts 144°
2026-04-27 17:36 50.01739 5.89879 35354 ft 316 kts 144°
2026-04-27 17:37 49.98544 5.94582 35263 ft 315 kts 144°
2026-04-27 17:37 49.95367 5.99255 35158 ft 315 kts 144°
2026-04-27 17:38 49.92218 6.03945 35077 ft 315 kts 144°
2026-04-27 17:38 49.89063 6.08635 35017 ft 313 kts 144°
2026-04-27 17:39 49.85812 6.13083 34868 ft 306 kts 158°
2026-04-27 17:39 49.83964 6.14607 34788 ft 298 kts 167°
2026-04-27 17:39 49.82070 6.15862 34826 ft 293 kts 168°
2026-04-27 17:39 49.80200 6.17087 34835 ft 291 kts 167°
2026-04-27 17:40 49.78339 6.18320 34771 ft 292 kts 167°
2026-04-27 17:40 49.76463 6.19579 34682 ft 294 kts 167°
2026-04-27 17:40 49.74586 6.20851 34662 ft 294 kts 167°
2026-04-27 17:40 49.72729 6.22119 34703 ft 290 kts 167°
2026-04-27 17:41 49.70884 6.23380 34683 ft 290 kts 167°
2026-04-27 17:41 49.69032 6.24635 34585 ft 292 kts 167°
2026-04-27 17:41 49.67191 6.25884 34530 ft 293 kts 167°
2026-04-27 17:41 49.65333 6.27150 34531 ft 291 kts 167°
2026-04-27 17:42 49.63490 6.28404 34540 ft 289 kts 167°
2026-04-27 17:42 49.61643 6.29621 34484 ft 289 kts 168°
2026-04-27 17:42 49.59783 6.30810 34401 ft 291 kts 169°
2026-04-27 17:42 49.57906 6.32006 34323 ft 293 kts 168°
2026-04-27 17:43 49.56028 6.33212 34289 ft 291 kts 169°
2026-04-27 17:43 49.54163 6.34414 34292 ft 290 kts 169°
2026-04-27 17:43 49.52306 6.35610 34256 ft 290 kts 169°
2026-04-27 17:43 49.50440 6.36802 34186 ft 291 kts 169°
2026-04-27 17:44 49.48561 6.38009 34150 ft 292 kts 169°
2026-04-27 17:44 49.46696 6.39209 34169 ft 290 kts 169°
2026-04-27 17:44 49.44844 6.40427 34178 ft 290 kts 167°
2026-04-27 17:44 49.43000 6.41686 34125 ft 291 kts 167°
2026-04-27 17:45 49.41145 6.42952 34045 ft 292 kts 167°
2026-04-27 17:45 49.39285 6.44219 34031 ft 292 kts 167°
2026-04-27 17:45 49.37437 6.45478 34064 ft 289 kts 168°
2026-04-27 17:45 49.35598 6.46724 34049 ft 289 kts 168°
2026-04-27 17:46 49.33752 6.47965 33945 ft 290 kts 167°
2026-04-27 17:46 49.31923 6.49196 33876 ft 292 kts 167°
2026-04-27 17:46 49.30068 6.50450 33875 ft 290 kts 167°
2026-04-27 17:46 49.28225 6.51695 33894 ft 288 kts 167°
2026-04-27 17:47 49.26391 6.52929 33859 ft 289 kts 167°
2026-04-27 17:47 49.25146 6.53764 33811 ft 290 kts 167°
2026-04-27 17:47 49.22694 6.55410 33764 ft 290 kts 167°
2026-04-27 17:47 49.20850 6.56648 33784 ft 288 kts 167°
2026-04-27 17:48 49.19015 6.57881 33788 ft 288 kts 167°
2026-04-27 17:48 49.17178 6.59109 33737 ft 289 kts 167°
2026-04-27 17:48 49.15339 6.60340 33686 ft 289 kts 167°
2026-04-27 17:48 49.13503 6.61568 33663 ft 287 kts 167°
2026-04-27 17:49 49.11677 6.62790 33626 ft 287 kts 167°
2026-04-27 17:49 49.09846 6.64009 33545 ft 288 kts 167°
2026-04-27 17:49 49.08004 6.65239 33490 ft 288 kts 167°
2026-04-27 17:49 49.06168 6.66466 33486 ft 287 kts 167°
2026-04-27 17:50 49.04341 6.67685 33488 ft 286 kts 167°
2026-04-27 17:50 49.00704 6.70103 33416 ft 287 kts 168°
2026-04-27 17:50 48.98845 6.71082 33390 ft 278 kts 179°
2026-04-27 17:51 48.96966 6.71463 33311 ft 268 kts 192°
2026-04-27 17:51 48.95119 6.71419 33298 ft 264 kts 193°
2026-04-27 17:51 48.93293 6.71330 33359 ft 261 kts 193°
2026-04-27 17:51 48.91480 6.71253 33364 ft 260 kts 193°
2026-04-27 17:52 48.89660 6.71175 33284 ft 263 kts 193°
2026-04-27 17:52 48.88444 6.71124 33218 ft 264 kts 192°
2026-04-27 17:52 48.86604 6.71058 33201 ft 264 kts 192°
2026-04-27 17:52 48.84773 6.70999 33233 ft 262 kts 192°
2026-04-27 17:53 48.82952 6.70937 33228 ft 262 kts 192°
2026-04-27 17:53 48.81124 6.70874 33171 ft 263 kts 192°
2026-04-27 17:53 48.79290 6.70809 33134 ft 264 kts 192°
2026-04-27 17:53 48.77453 6.70749 33156 ft 263 kts 192°
2026-04-27 17:54 48.75629 6.70690 33186 ft 261 kts 192°
2026-04-27 17:54 48.73812 6.70628 33162 ft 262 kts 192°
2026-04-27 17:54 48.72006 6.70566 33105 ft 263 kts 192°
2026-04-27 17:54 48.70172 6.70503 33086 ft 263 kts 192°
2026-04-27 17:55 48.68344 6.70445 33105 ft 262 kts 192°
2026-04-27 17:55 48.66528 6.70385 33132 ft 261 kts 192°
2026-04-27 17:55 48.64708 6.70323 33085 ft 262 kts 192°
2026-04-27 17:55 48.62879 6.70258 33037 ft 263 kts 192°
2026-04-27 17:56 48.61047 6.70198 33057 ft 262 kts 192°
2026-04-27 17:56 48.59226 6.70143 33086 ft 260 kts 192°
2026-04-27 17:56 48.57413 6.70079 33075 ft 261 kts 192°
2026-04-27 17:56 48.55581 6.70012 32960 ft 266 kts 192°
2026-04-27 17:57 48.53710 6.69942 32872 ft 271 kts 191°
2026-04-27 17:57 48.51804 6.69877 32832 ft 276 kts 191°
2026-04-27 17:57 48.49866 6.69811 32853 ft 281 kts 191°
2026-04-27 17:57 48.47909 6.69753 32868 ft 280 kts 191°
2026-04-27 17:58 48.45969 6.69689 32890 ft 283 kts 191°
2026-04-27 17:58 48.43930 6.69620 32479 ft 298 kts 190°
2026-04-27 17:58 48.41820 6.69548 31939 ft 315 kts 189°
2026-04-27 17:58 48.39576 6.69472 31459 ft 331 kts 188°
2026-04-27 17:59 48.37226 6.69372 31107 ft 336 kts 188°
2026-04-27 17:59 48.34932 6.69272 31174 ft 329 kts 189°
2026-04-27 17:59 48.30197 6.69027 31156 ft 354 kts 188°
2026-04-27 18:00 48.25135 6.68779 31065 ft 371 kts 188°
2026-04-27 18:00 48.22565 6.68661 31285 ft 366 kts 188°
2026-04-27 18:00 48.20048 6.68629 32006 ft 360 kts 182°
2026-04-27 18:01 48.17569 6.69305 32435 ft 369 kts 167°
2026-04-27 18:01 48.15213 6.70963 32738 ft 380 kts 152°
2026-04-27 18:01 48.13172 6.73549 32980 ft 391 kts 135°
2026-04-27 18:01 48.11482 6.76790 33207 ft 397 kts 129°
2026-04-27 18:02 48.09894 6.80184 33447 ft 400 kts 129°
2026-04-27 18:02 48.08311 6.83552 33657 ft 402 kts 129°
2026-04-27 18:02 48.06661 6.87007 33867 ft 405 kts 130°
2026-04-27 18:02 48.05010 6.90433 34084 ft 407 kts 130°
2026-04-27 18:03 48.03344 6.93872 34290 ft 409 kts 130°
2026-04-27 18:03 48.01692 6.97269 34562 ft 408 kts 130°
2026-04-27 18:03 48.00025 7.00686 34841 ft 406 kts 130°
2026-04-27 18:03 47.98372 7.04071 35187 ft 397 kts 130°
2026-04-27 18:04 47.95103 7.10825 35201 ft 404 kts 129°
2026-04-27 18:04 47.91823 7.17667 35068 ft 405 kts 129°
2026-04-27 18:05 47.88541 7.24470 35101 ft 404 kts 129°
2026-04-27 18:05 47.85241 7.31278 35094 ft 405 kts 129°
2026-04-27 18:06 47.81957 7.38093 35093 ft 405 kts 129°
2026-04-27 18:06 47.78692 7.44839 35081 ft 405 kts 129°
2026-04-27 18:07 47.75369 7.51591 35092 ft 403 kts 129°
2026-04-27 18:07 47.72049 7.58304 35073 ft 403 kts 129°
2026-04-27 18:08 47.68728 7.65027 35076 ft 404 kts 129°
2026-04-27 18:08 47.65400 7.71748 35077 ft 403 kts 129°
2026-04-27 18:09 47.62090 7.78413 35068 ft 404 kts 129°
2026-04-27 18:09 47.58758 7.85107 35084 ft 404 kts 129°
2026-04-27 18:10 47.55421 7.91794 35078 ft 404 kts 130°
2026-04-27 18:10 47.52079 7.98474 35056 ft 403 kts 129°
2026-04-27 18:11 47.48739 8.05135 35080 ft 404 kts 129°
2026-04-27 18:11 47.45373 8.11831 35081 ft 403 kts 129°
2026-04-27 18:12 47.42050 8.18426 35078 ft 403 kts 129°
2026-04-27 18:12 47.38697 8.25064 35082 ft 403 kts 129°
2026-04-27 18:13 47.35344 8.31687 35078 ft 403 kts 129°
2026-04-27 18:13 47.31978 8.38319 35078 ft 404 kts 129°
2026-04-27 18:14 47.28611 8.44938 35096 ft 404 kts 129°
2026-04-27 18:14 47.25246 8.51538 35098 ft 404 kts 129°
2026-04-27 18:15 47.21949 8.58226 35092 ft 403 kts 128°
2026-04-27 18:15 47.18654 8.64910 35101 ft 404 kts 128°
2026-04-27 18:16 47.15345 8.71585 35091 ft 405 kts 128°
2026-04-27 18:16 47.12026 8.78262 35103 ft 404 kts 128°
2026-04-27 18:17 47.08703 8.84927 35095 ft 405 kts 128°
2026-04-27 18:17 47.05381 8.91578 35129 ft 404 kts 128°
2026-04-27 18:18 47.02051 8.98225 35101 ft 403 kts 128°
2026-04-27 18:18 46.98725 9.04846 35118 ft 403 kts 128°
2026-04-27 18:19 46.95404 9.11440 35113 ft 404 kts 128°
2026-04-27 18:19 46.92069 9.18056 35085 ft 403 kts 128°
2026-04-27 18:20 46.88728 9.24663 35115 ft 405 kts 128°
2026-04-27 18:20 46.85372 9.31285 35093 ft 404 kts 128°
2026-04-27 18:21 46.82025 9.37871 35107 ft 404 kts 128°
2026-04-27 18:21 46.78688 9.44422 35093 ft 404 kts 128°
2026-04-27 18:22 46.75335 9.50987 35110 ft 403 kts 127°
2026-04-27 18:22 46.71996 9.57515 35126 ft 401 kts 127°
2026-04-27 18:23 46.68639 9.64060 35110 ft 402 kts 128°
2026-04-27 18:23 46.65288 9.70580 35159 ft 403 kts 128°
2026-04-27 18:24 46.61919 9.77114 35148 ft 404 kts 127°
2026-04-27 18:24 46.58549 9.83641 35157 ft 403 kts 127°
2026-04-27 18:25 46.55201 9.90113 35150 ft 403 kts 128°
2026-04-27 18:25 46.51831 9.96615 35150 ft 402 kts 127°
2026-04-27 18:26 46.48453 10.03079 35149 ft 402 kts 131°
2026-04-27 18:26 46.44369 10.08547 35144 ft 399 kts 143°
2026-04-27 18:27 46.40069 10.13630 35100 ft 398 kts 142°
2026-04-27 18:27 46.35796 10.18735 35085 ft 398 kts 142°
2026-04-27 18:28 46.31560 10.23810 35091 ft 398 kts 142°
2026-04-27 18:28 46.27288 10.28923 35088 ft 398 kts 142°
2026-04-27 18:29 46.23020 10.34020 35096 ft 398 kts 142°
2026-04-27 18:29 46.18747 10.39113 35101 ft 398 kts 142°
2026-04-27 18:30 46.14472 10.44198 35090 ft 398 kts 142°
2026-04-27 18:30 46.10193 10.49276 35102 ft 398 kts 142°
2026-04-27 18:31 46.05914 10.54344 35088 ft 397 kts 142°
2026-04-27 18:31 46.01647 10.59387 35085 ft 397 kts 142°
2026-04-27 18:32 45.97397 10.64398 35088 ft 397 kts 142°
2026-04-27 18:32 45.93113 10.69441 35088 ft 398 kts 142°
2026-04-27 18:33 45.88829 10.74475 35081 ft 396 kts 142°
2026-04-27 18:33 45.84564 10.79477 35077 ft 395 kts 141°
2026-04-27 18:34 45.80317 10.84446 35069 ft 394 kts 141°
2026-04-27 18:34 45.76061 10.89415 35069 ft 395 kts 141°
2026-04-27 18:35 45.71835 10.94339 35070 ft 394 kts 141°
2026-04-27 18:35 45.67575 10.99294 35061 ft 395 kts 142°
2026-04-27 18:36 45.63617 11.04700 35077 ft 394 kts 126°
2026-04-27 18:36 45.60583 11.11193 35048 ft 393 kts 122°
2026-04-27 18:37 45.57612 11.17728 35063 ft 392 kts 121°
2026-04-27 18:37 45.54686 11.24295 35054 ft 393 kts 122°
2026-04-27 18:38 45.51737 11.30852 35052 ft 393 kts 122°
2026-04-27 18:38 45.48797 11.37353 35057 ft 392 kts 122°
2026-04-27 18:39 45.46317 11.42823 35049 ft 392 kts 122°
2026-04-27 18:39 45.44233 11.47022 35072 ft 392 kts 133°
2026-04-27 18:39 45.42187 11.49580 35064 ft 392 kts 149°
2026-04-27 18:40 45.39746 11.51254 35094 ft 390 kts 165°
2026-04-27 18:40 45.37093 11.52022 35122 ft 387 kts 175°
2026-04-27 18:40 45.32636 11.52737 35022 ft 386 kts 176°
2026-04-27 18:41 45.27303 11.53623 35031 ft 386 kts 175°
2026-04-27 18:41 45.21956 11.54569 35033 ft 386 kts 175°
2026-04-27 18:42 45.17521 11.55360 35022 ft 386 kts 174°
2026-04-27 18:42 45.11293 11.56478 35027 ft 386 kts 174°
2026-04-27 18:43 45.05994 11.57421 35040 ft 386 kts 174°
2026-04-27 18:43 45.00663 11.58373 35038 ft 386 kts 174°
2026-04-27 18:44 44.95325 11.59323 35053 ft 386 kts 174°
2026-04-27 18:44 44.89961 11.60274 34375 ft 400 kts 174°
2026-04-27 18:45 44.87212 11.60778 34158 ft 390 kts 174°
2026-04-27 18:45 44.84532 11.61253 33605 ft 391 kts 174°
2026-04-27 18:45 44.81834 11.61658 33173 ft 387 kts 180°
2026-04-27 18:45 44.79144 11.61586 32662 ft 387 kts 185°
2026-04-27 18:46 44.76454 11.61339 32160 ft 388 kts 186°
2026-04-27 18:46 44.73756 11.61059 31621 ft 390 kts 186°
2026-04-27 18:46 44.71049 11.60782 31122 ft 390 kts 186°
2026-04-27 18:46 44.68340 11.60512 30594 ft 391 kts 185°
2026-04-27 18:47 44.65626 11.60245 30078 ft 391 kts 185°
2026-04-27 18:47 44.62911 11.59982 29556 ft 390 kts 185°
2026-04-27 18:47 44.60205 11.59721 29031 ft 391 kts 185°
2026-04-27 18:47 44.57492 11.59459 28543 ft 389 kts 185°
2026-04-27 18:48 44.54796 11.59201 27984 ft 389 kts 185°
2026-04-27 18:48 44.52109 11.58942 27499 ft 384 kts 185°
2026-04-27 18:48 44.49446 11.58688 26962 ft 382 kts 185°
2026-04-27 18:48 44.46811 11.58437 26487 ft 377 kts 185°
2026-04-27 18:49 44.44237 11.58189 25977 ft 374 kts 185°
2026-04-27 18:49 44.41656 11.57945 25487 ft 370 kts 185°
2026-04-27 18:49 44.39098 11.57700 25003 ft 366 kts 185°
2026-04-27 18:49 44.36564 11.57461 24518 ft 363 kts 185°
2026-04-27 18:50 44.34056 11.57221 24048 ft 360 kts 185°
2026-04-27 18:50 44.31567 11.56985 23556 ft 358 kts 185°
2026-04-27 18:50 44.29096 11.56751 23095 ft 353 kts 185°
2026-04-27 18:50 44.26661 11.56521 22627 ft 349 kts 185°
2026-04-27 18:51 44.24244 11.56276 22179 ft 347 kts 186°
2026-04-27 18:51 44.21840 11.56019 21720 ft 345 kts 186°
2026-04-27 18:51 44.19449 11.55767 21256 ft 344 kts 186°
2026-04-27 18:51 44.17063 11.55516 20820 ft 343 kts 186°
2026-04-27 18:52 44.14684 11.55266 20329 ft 342 kts 186°
2026-04-27 18:52 44.12344 11.55045 19885 ft 340 kts 185°
2026-04-27 18:52 44.09996 11.54829 19461 ft 337 kts 185°
2026-04-27 18:53 44.05347 11.54394 18567 ft 333 kts 185°
2026-04-27 18:53 44.03045 11.54181 18109 ft 330 kts 185°
2026-04-27 18:53 44.00810 11.53871 18118 ft 315 kts 194°
2026-04-27 18:53 43.98779 11.52762 18112 ft 314 kts 211°
2026-04-27 18:54 43.96945 11.51226 18057 ft 301 kts 214°
2026-04-27 18:54 43.95211 11.49688 17861 ft 291 kts 214°
2026-04-27 18:54 43.93522 11.48201 17598 ft 284 kts 214°
2026-04-27 18:54 43.91881 11.46768 17286 ft 280 kts 214°
2026-04-27 18:55 43.90236 11.45347 16930 ft 278 kts 214°
2026-04-27 18:55 43.88587 11.43930 16525 ft 278 kts 213°
2026-04-27 18:55 43.86938 11.42523 16104 ft 279 kts 213°
2026-04-27 18:55 43.85272 11.41103 15644 ft 282 kts 213°
2026-04-27 18:56 43.83595 11.39675 15157 ft 285 kts 213°
2026-04-27 18:56 43.81888 11.38227 14638 ft 289 kts 212°
2026-04-27 18:56 43.80157 11.36755 14073 ft 295 kts 213°
2026-04-27 18:56 43.78402 11.35259 13525 ft 297 kts 212°
2026-04-27 18:57 43.76638 11.33757 13004 ft 298 kts 213°
2026-04-27 18:57 43.75032 11.32034 12530 ft 295 kts 225°
2026-04-27 18:57 43.73634 11.29969 12098 ft 293 kts 229°
2026-04-27 18:57 43.72298 11.27845 11668 ft 291 kts 230°
2026-04-27 18:58 43.70970 11.25746 11244 ft 289 kts 229°
2026-04-27 18:58 43.70072 11.24343 10935 ft 288 kts 229°
2026-04-27 18:58 43.68315 11.21618 10418 ft 285 kts 229°
2026-04-27 18:58 43.67034 11.19641 10414 ft 268 kts 229°
2026-04-27 18:59 43.65825 11.17778 10383 ft 253 kts 228°
2026-04-27 18:59 43.64676 11.16005 10249 ft 244 kts 228°
2026-04-27 18:59 43.63545 11.14264 9970 ft 243 kts 228°
2026-04-27 18:59 43.62414 11.12541 9644 ft 242 kts 228°
2026-04-27 19:00 43.61287 11.10822 9330 ft 241 kts 228°
2026-04-27 19:00 43.60164 11.09113 9012 ft 240 kts 228°
2026-04-27 19:00 43.59050 11.07416 8747 ft 238 kts 228°
2026-04-27 19:00 43.57940 11.05719 8433 ft 237 kts 228°
2026-04-27 19:01 43.56841 11.04025 8143 ft 236 kts 228°
2026-04-27 19:01 43.55750 11.02347 7862 ft 235 kts 228°
2026-04-27 19:01 43.54661 11.00673 7588 ft 233 kts 228°
2026-04-27 19:01 43.53581 10.99014 7316 ft 232 kts 229°
2026-04-27 19:02 43.52503 10.97362 7019 ft 231 kts 228°
2026-04-27 19:02 43.51429 10.95721 6755 ft 230 kts 228°
2026-04-27 19:02 43.50360 10.94086 6456 ft 230 kts 228°
2026-04-27 19:02 43.49309 10.92424 6135 ft 230 kts 236°
2026-04-27 19:03 43.48776 10.90421 5838 ft 228 kts 269°
2026-04-27 19:03 43.49208 10.88379 5579 ft 223 kts 304°
2026-04-27 19:03 43.50265 10.86908 5569 ft 201 kts 317°
2026-04-27 19:03 43.50936 10.86084 5549 ft 190 kts 317°
2026-04-27 19:04 43.52220 10.84500 5187 ft 186 kts 317°
2026-04-27 19:04 43.53283 10.83499 4794 ft 190 kts 346°
2026-04-27 19:04 43.54546 10.83876 4374 ft 194 kts 34°
2026-04-27 19:04 43.55593 10.85032 4083 ft 193 kts 34°
2026-04-27 19:05 43.56773 10.85884 3788 ft 191 kts 20°
2026-04-27 19:05 43.58006 10.86576 3484 ft 191 kts 23°
2026-04-27 19:05 43.59194 10.87377 3191 ft 190 kts 25°
2026-04-27 19:05 43.60207 10.88463 3148 ft 177 kts 47°
2026-04-27 19:06 43.61010 10.89813 3141 ft 185 kts 47°
2026-04-27 19:06 43.61907 10.91112 3154 ft 189 kts 44°
2026-04-27 19:06 43.62805 10.92450 3182 ft 191 kts 47°
2026-04-27 19:06 43.63688 10.93819 3200 ft 191 kts 47°
2026-04-27 19:07 43.64581 10.95193 3118 ft 194 kts 46°
2026-04-27 19:07 43.65478 10.96569 3077 ft 190 kts 46°
2026-04-27 19:07 43.66363 10.97929 3069 ft 191 kts 46°
2026-04-27 19:07 43.67253 10.99295 3082 ft 191 kts 47°
2026-04-27 19:08 43.68141 11.00659 3090 ft 191 kts 47°
2026-04-27 19:08 43.69031 11.02024 3078 ft 191 kts 47°
2026-04-27 19:08 43.69908 11.03406 3063 ft 192 kts 47°
2026-04-27 19:08 43.70799 11.04753 3010 ft 194 kts 46°
2026-04-27 19:09 43.71723 11.06162 2711 ft 198 kts 47°
2026-04-27 19:09 43.72634 11.07564 2436 ft 193 kts 47°
2026-04-27 19:09 43.73510 11.08916 2171 ft 185 kts 47°
2026-04-27 19:09 43.74361 11.10232 1961 ft 182 kts 46°
2026-04-27 19:10 43.75206 11.11536 1702 ft 183 kts 47°
2026-04-27 19:10 43.76043 11.12825 1435 ft 175 kts 47°
2026-04-27 19:10 43.76827 11.14036 1162 ft 163 kts 46°
2026-04-27 19:10 43.77324 11.14799 1004 ft 160 kts 47°
2026-04-27 19:11 43.78287 11.16308 767 ft 153 kts 47°
2026-04-27 19:11 43.78990 11.17385 587 ft 149 kts 47°
2026-04-27 19:11 43.79665 11.18432 402 ft 145 kts 47°
2026-04-27 19:11 43.80321 11.19452 237 ft 140 kts 47°
2026-04-27 19:12 43.80948 11.20411 126 ft 121 kts 48°
2026-04-27 19:12 43.81381 11.21084 131 ft 62 kts 48°
2026-04-27 19:12 43.81510 11.21330 135 ft 0 kts 38°
2026-04-27 19:12 43.81514 11.21331 136 ft 2 kts 19°
2026-04-27 19:13 43.81513 11.21306 134 ft 7 kts 238°
2026-04-27 19:13 43.81487 11.21317 134 ft 4 kts 131°
2026-04-27 19:13 43.81468 11.21343 135 ft 2 kts 141°
2026-04-27 19:13 43.81466 11.21344 136 ft 0 kts 141°
2026-04-27 19:14 43.81464 11.21347 136 ft 3 kts 141°
2026-04-27 19:14 43.81447 11.21360 138 ft 1 kts 155°
2026-04-27 19:15 43.81419 11.21374 140 ft 9 kts 161°
2026-04-27 19:15 43.81354 11.21362 144 ft 9 kts 214°
2026-04-27 19:15 43.81309 11.21296 143 ft 8 kts 227°
2026-04-27 19:15 43.81298 11.21280 143 ft 0 kts 227°
2026-04-27 19:16 43.81288 11.21265 143 ft 6 kts 227°
2026-04-27 19:16 43.81270 11.21236 142 ft 3 kts 232°
2026-04-27 19:16 43.81264 11.21221 142 ft 0 kts 240°
2026-04-27 19:17 43.81264 11.21220 142 ft 0 kts 240°
2026-04-27 19:17 43.81256 11.21184 140 ft 7 kts 264°
2026-04-27 19:17 43.81260 11.21084 136 ft 13 kts 275°
2026-04-27 19:18 43.81264 11.20939 133 ft 17 kts 261°
2026-04-27 19:18 43.81189 11.20793 125 ft 21 kts 228°
2026-04-27 19:18 43.81087 11.20636 126 ft 23 kts 228°
2026-04-27 19:18 43.80980 11.20471 124 ft 24 kts 228°
2026-04-27 19:19 43.80874 11.20306 124 ft 23 kts 228°
2026-04-27 19:19 43.80770 11.20146 132 ft 22 kts 227°
2026-04-27 19:19 43.80647 11.20024 128 ft 23 kts 194°
2026-04-27 19:19 43.80556 11.19993 132 ft 8 kts 193°
2026-04-27 19:20 43.80498 11.19975 132 ft 9 kts 193°
2026-04-27 19:20 43.80445 11.19961 129 ft 2 kts 163°
2026-04-27 19:20 43.80432 11.19980 130 ft 4 kts 136°
2026-04-27 19:20 43.80411 11.20008 130 ft 5 kts 136°
2026-04-27 19:21 43.80368 11.20030 128 ft 0 kts 177°
2026-04-27 19:21 43.80366 11.20030 127 ft 2 kts 179°
2026-04-27 19:21 43.80360 11.20027 127 ft 0 kts 195°
2026-04-27 19:22 43.80352 11.20022 127 ft 3 kts 207°
2026-04-27 19:22 43.80332 11.20015 127 ft 4 kts 176°
2026-04-27 19:22 43.80298 11.20030 124 ft 0 kts 158°